Wind_Speed
15 12 17 20 21 5 8 13 19 15 14 14 13 10 16 12 6 12 18 19 18 18 21 18 19 18 16 17 16 11 11 14 13 14 14 14 12 10 8 11 11 6 7 5
11 16 17 19 13 10 13 3 20 11 16 5 11 16 20 16 16 15 14 17 17 16 18 19 19 19 18 16 17 16 11 14 10 9 3 9 12 11 10 9 10 9 7 6
14 15 18 17 15 10 16 4 17 19 19 14 14 10 20 21 13 16 15 18 17 17 20 11 19 19 18 17 15 16 13 13 12 6 6 7 11 12 10 9 11 10 9 8
14 8 15 14 14 15 16 4 14 23 23 9 21 4 15 18 19 18 15 18 16 20 8 24 21 21 23 19 16 15 15 12 11 11 9 11 7 9 7 12 11 12 8 8
15 10 12 16 18 16 2 11 16 33 14 9 17 6 11 20 20 23 19 19 24 17 27 21 22 23 19 20 18 17 15 13 13 11 10 11 9 9 8 8 11 7 6 8
17 10 11 17 18 12 4 10 7 8 5 11 13 7 12 16 25 26 26 26 27 29 20 23 25 26 19 20 19 18 17 14 13 10 9 7 6 2 7 7 7 10 11 11
14 11 15 14 18 8 10 12 5 7 7 3 22 11 9 24 31 31 22 25 21 21 22 20 19 19 25 23 19 20 18 16 14 13 12 9 7 6 6 8 9 8 8 12
14 12 16 11 17 13 17 13 7 9 10 10 10 6 11 21 27 24 23 21 15 17 18 20 18 32 23 20 19 19 20 18 16 14 12 10 7 7 8 8 3 8 9 8
14 18 20 15 14 18 16 16 18 14 18 4 9 9 11 12 22 19 25 24 23 20 17 20 23 23 18 24 22 19 20 19 17 15 13 12 10 6 3 0 6 7 8 9
10 11 19 17 14 16 17 17 16 11 19 15 12 9 12 17 17 17 23 27 28 24 12 18 20 21 22 16 27 20 20 20 18 17 13 12 11 9 7 5 6 5 5 8
13 9 10 12 18 19 13 14 16 16 16 7 8 3 2 20 18 19 21 21 22 10 5 19 16 30 17 28 15 20 21 20 19 17 14 12 11 10 10 9 8 8 9 10
14 8 13 19 15 20 18 18 15 12 20 14 4 5 4 6 14 17 15 19 22 23 25 12 12 8 29 17 18 22 23 20 18 17 16 15 12 11 11 11 10 9 8 12
5 10 12 7 16 18 19 16 21 20 17 17 12 4 6 3 6 11 22 16 15 16 15 15 12 6 24 16 15 16 12 10 10 15 17 16 15 13 12 12 11 9 9 10
7 14 13 4 5 11 17 20 20 19 14 17 14 20 15 14 12 8 11 11 10 17 15 12 11 11 19 19 18 10 12 8 4 8 9 17 16 14 13 13 13 13 11 11
9 17 15 6 17 22 19 21 18 18 19 17 3 11 21 20 18 14 11 11 12 11 14 13 14 15 18 18 17 17 14 14 9 7 8 9 11 11 11 11 13 15 14 13
8 9 11 10 10 16 11 20 15 18 20 15 5 15 3 19 20 17 13 11 11 8 11 14 15 13 14 17 19 16 15 14 12 10 5 7 7 6 7 9 11 12 14 13
8 4 5 10 10 10 6 1 9 8 10 7 8 3 7 19 12 13 13 8 7 9 9 9 9 10 13 16 15 15 15 14 15 9 11 8 4 6 7 7 9 11 10 10
7 3 8 1 11 16 8 16 10 7 7 7 3 7 9 16 15 12 10 12 10 8 8 8 9 11 11 12 13 15 13 11 13 11 8 7 6 4 3 7 7 8 8 7
6 3 5 4 2 8 14 13 10 13 9 5 5 13 10 12 14 10 9 8 11 12 12 12 13 13 14 12 11 11 10 9 8 9 7 7 6 6 4 5 2 5 5 5
6 9 11 3 10 3 7 11 6 9 8 19 11 7 5 3 4 9 10 12 14 17 16 15 13 13 13 13 15 18 15 13 9 8 9 10 7 7 7 6 5 1 5 7
6 8 10 1 4 5 2 2 17 12 5 10 5 3 7 2 9 17 15 12 15 16 18 18 17 16 14 15 15 18 15 15 12 10 9 7 7 8 6 7 7 6 7 9
1 4 6 4 9 4 8 1 3 4 4 7 8 9 13 12 8 12 13 14 18 20 19 18 18 17 15 13 17 15 14 12 11 11 6 7 7 6 7 6 7 8 8 8
4 5 3 8 4 6 8 10 8 6 6 6 6 4 11 6 11 12 11 14 17 18 17 15 16 16 13 11 10 14 11 10 9 10 8 6 6 7 6 6 7 6 5 6
3 2 4 1 8 6 5 7 8 8 9 8 5 2 5 10 14 12 10 12 16 20 19 18 14 14 13 11 10 10 8 8 7 8 7 7 5 6 5 5 4 4 5 5
4 6 6 4 8 5 4 6 5 6 7 8 6 4 3 11 11 11 10 12 14 13 13 13 14 12 11 9 9 8 6 6 7 7 7 7 7 6 6 8 6 4 1 3
7 4 5 2 6 5 8 4 0 2 4 5 5 4 6 6 10 10 8 12 14 13 12 11 11 12 10 9 7 6 6 5 4 4 5 5 6 8 8 7 6 7 6 4
Wind_Direction
201 210 212 207 217 264 275 252 130 147 158 173 201 189 180 191 235 228 183 176 175 169 151 166 153 154 157 155 160 165 138 152 161 162 165 154 162 150 174 145 124 154 154 156
183 219 224 237 217 258 251 252 107 130 131 112 172 189 181 186 207 223 179 204 171 165 146 166 156 162 158 161 161 163 171 166 173 195 142 142 155 149 175 149 161 174 173 167
215 209 233 225 219 224 244 257 147 160 170 213 189 196 178 190 218 244 241 221 183 150 157 180 170 175 154 161 170 173 172 181 185 185 158 154 136 151 161 151 170 183 175 182
238 229 203 217 234 218 230 220 108 162 159 183 193 158 182 167 200 233 246 213 204 161 176 172 182 178 171 164 169 178 175 181 191 187 175 150 165 178 197 184 180 168 191 195
214 201 215 213 219 214 266 250 130 243 147 88 198 240 142 166 187 217 236 188 224 179 183 188 173 171 175 167 171 168 180 179 197 180 169 162 195 181 175 135 142 156 184 208
246 217 209 223 222 212 58 245 220 276 187 214 160 187 169 174 185 209 214 201 189 197 199 162 188 169 168 171 171 162 175 177 178 182 180 199 170 166 114 136 158 180 177 194
227 223 217 237 211 183 215 220 182 227 214 228 164 210 160 182 189 191 191 200 205 195 184 166 174 178 165 166 177 160 172 177 181 183 187 184 175 166 171 177 197 187 180 189
209 188 211 207 231 187 212 214 209 207 219 178 143 214 134 179 173 191 191 194 205 217 198 177 173 161 161 202 174 169 167 177 182 184 190 193 188 194 193 196 179 185 182 196
195 245 178 191 225 239 200 220 243 269 278 174 253 108 124 152 157 174 182 179 206 211 222 186 165 161 192 173 174 172 169 179 183 185 186 190 195 203 199 178 198 189 188 181
316 217 179 196 205 239 259 210 233 231 265 270 143 219 140 166 182 178 179 186 188 201 239 191 163 160 175 193 172 178 172 182 182 187 184 187 194 200 208 211 214 253 217 209
275 266 180 203 204 210 211 245 230 242 247 261 263 138 231 161 173 178 181 185 181 178 350 276 181 158 154 181 170 171 176 180 183 191 186 198 191 195 202 209 216 219 221 209
236 273 241 197 218 221 223 218 237 238 236 269 286 247 359 65 153 165 166 162 177 172 175 235 186 181 159 153 169 188 189 179 191 189 188 193 194 202 200 217 208 211 212 206
254 231 245 275 190 202 233 212 230 226 252 250 262 111 92 146 179 158 155 158 159 179 198 196 199 130 122 142 175 176 173 176 194 195 191 192 199 202 215 210 222 210 206 210
310 262 253 230 285 244 216 234 219 239 216 248 239 131 168 159 135 120 124 123 146 173 191 172 146 135 130 159 167 165 177 203 236 185 229 191 205 210 214 216 215 222 218 211
250 254 281 121 257 273 192 216 224 230 251 230 349 25 154 157 144 152 152 150 170 165 153 156 155 145 154 147 159 160 153 161 179 220 215 223 213 212 216 228 232 220 224 228
289 318 254 156 240 280 195 198 209 217 243 253 113 241 92 117 121 139 151 166 165 138 164 176 165 163 168 167 175 156 144 162 179 208 214 221 212 204 207 213 227 231 227 224
296 261 262 253 181 215 209 216 256 237 215 311 349 10 8 97 113 111 112 112 145 117 122 125 154 171 191 182 178 168 178 200 224 208 206 207 198 218 224 226 227 224 218 224
266 3 311 332 312 227 108 339 345 16 19 357 320 54 142 100 98 99 119 128 117 113 105 97 104 95 104 126 137 149 162 184 191 197 190 197 188 186 223 228 230 226 204 207
162 138 308 257 274 282 138 93 345 333 59 28 3 86 99 106 107 103 121 144 139 125 116 102 102 102 97 101 121 125 132 165 170 163 183 189 195 173 159 160 166 187 197 180
157 204 253 242 276 238 90 356 336 295 179 355 17 101 101 140 224 134 125 119 122 124 122 117 110 106 104 109 111 106 103 108 109 136 161 155 150 154 166 163 185 122 124 128
220 243 238 332 219 94 291 313 311 256 38 350 44 327 116 166 34 121 134 130 124 121 118 116 111 104 105 108 117 107 104 92 92 111 109 125 138 125 137 144 157 151 137 123
259 302 253 222 267 72 317 190 329 3 15 7 10 50 89 99 122 135 135 132 129 126 129 122 117 112 109 108 108 107 110 117 104 93 93 103 112 131 132 138 129 131 133 128
281 354 13 347 55 105 67 78 64 18 37 21 342 57 101 126 130 138 140 140 133 129 124 119 117 111 110 114 117 113 121 115 116 116 108 103 112 120 119 130 130 132 143 162
166 314 262 321 138 108 97 86 66 37 34 19 14 55 113 124 141 140 140 141 144 149 141 131 124 118 113 110 107 108 121 125 144 142 148 142 139 129 136 146 144 168 186 207
21 145 237 194 149 138 147 82 36 47 33 41 40 64 126 134 152 155 157 150 150 140 135 138 130 123 116 115 121 126 127 142 149 155 155 159 152 154 117 86 77 90 102 57
187 222 207 45 85 174 101 116 86 40 45 37 53 81 99 129 149 160 158 151 151 145 133 126 124 120 122 123 120 120 124 130 146 159 167 171 167 175 153 141 98 126 101 82
Height
759 768 765 751 740 735 737 739 769 788 790 809 815 818 809 807 808 797 790 792 794 798 805 813 816 822 828 834 841 842 847 850 853 855 855 857 859 861 862 864 867 870 872 873
762 768 744 736 734 738 742 740 786 793 801 814 814 810 807 813 810 800 793 793 793 795 804 812 818 821 827 833 839 845 850 851 854 854 855 856 859 861 864 864 868 870 872 873
756 745 738 742 741 753 744 749 774 787 797 804 804 809 810 812 814 813 798 795 793 798 801 811 816 818 826 832 838 843 849 852 853 854 856 857 859 862 864 866 867 870 871 873
752 730 743 745 750 748 752 735 768 772 784 806 780 816 807 811 818 815 810 794 791 792 801 805 812 817 819 828 835 841 846 852 855 855 857 859 860 861 862 864 866 869 871 872
754 743 750 757 751 738 748 734 766 779 761 804 784 793 794 805 821 815 808 796 794 794 796 792 803 812 817 823 831 838 845 851 854 854 858 858 859 860 860 862 865 869 871 872
737 730 740 743 734 732 735 743 739 746 750 787 771 771 797 808 807 805 791 784 778 785 781 788 801 805 815 819 826 834 843 849 852 856 857 858 858 858 859 863 865 866 869 872
752 750 737 732 743 736 749 753 785 787 779 774 742 750 769 769 772 773 774 773 769 769 777 783 794 802 810 815 823 830 841 847 851 854 856 858 858 860 862 864 864 864 865 868
764 770 742 735 738 748 753 753 777 798 772 752 733 757 752 738 743 757 768 770 772 773 769 776 788 807 806 813 820 827 838 846 849 852 855 857 859 859 860 862 864 864 864 867
752 753 730 733 733 734 748 764 737 757 738 780 769 750 736 729 743 748 759 771 779 776 771 774 783 792 805 810 820 826 835 842 847 850 854 856 858 860 860 862 863 863 865 865
740 754 728 733 733 732 735 731 761 751 775 764 759 789 746 746 744 745 755 759 770 773 778 773 781 792 802 809 815 824 832 839 843 846 852 854 856 858 860 862 863 863 863 865
738 744 744 736 744 748 749 749 741 736 732 761 752 765 724 726 733 742 743 750 763 779 786 787 779 787 796 803 812 821 830 836 840 843 847 850 853 856 859 860 862 862 863 864
742 742 752 741 723 725 727 739 735 754 761 731 745 776 735 726 725 734 741 747 761 778 792 780 784 784 793 804 816 824 827 832 838 841 845 849 851 853 855 858 858 861 862 864
741 749 757 762 732 728 737 730 731 729 728 743 749 775 739 739 740 732 743 755 767 776 783 783 785 791 789 809 821 826 830 832 835 837 841 845 849 851 853 854 857 858 861 862
753 741 744 761 746 732 747 739 729 727 748 741 734 752 751 742 751 753 753 762 763 773 778 780 788 795 800 815 822 828 832 835 837 836 839 842 845 848 849 852 854 857 859 860
750 758 746 750 748 724 727 736 729 736 728 740 737 739 730 731 747 766 767 772 776 776 784 789 796 803 810 816 821 825 829 833 837 841 840 844 846 847 849 851 852 855 857 858
746 764 752 772 749 727 727 723 730 731 730 725 729 738 760 720 735 758 773 778 783 786 789 794 801 808 811 814 822 825 827 833 837 841 842 844 846 846 847 849 852 853 855 856
771 773 757 756 737 742 753 736 730 726 720 726 743 749 749 735 764 762 776 787 788 795 798 799 801 808 810 816 820 822 828 833 835 839 843 844 845 846 847 848 850 852 853 855
769 781 778 781 770 773 770 759 741 741 738 733 742 735 751 742 761 766 778 790 798 801 802 807 811 812 815 819 820 823 829 831 834 838 843 844 844 844 846 848 849 852 854 854
758 778 806 797 824 785 759 763 763 760 760 747 738 743 754 760 763 779 786 792 797 802 809 812 815 817 819 820 823 824 828 833 837 839 841 843 843 845 846 846 850 851 852 853
757 764 775 771 780 798 782 769 763 761 774 756 753 754 761 769 770 780 792 797 803 808 812 815 817 819 821 823 825 828 832 834 838 840 842 843 845 846 848 847 850 851 852 853
770 768 770 771 780 807 781 778 763 785 792 771 766 758 761 780 781 786 795 800 805 811 816 819 821 824 827 828 830 832 835 837 839 841 843 844 846 846 849 850 852 851 854 856
770 781 773 770 781 820 779 774 783 788 773 773 768 766 780 788 791 794 799 803 808 814 819 822 825 827 831 834 835 837 839 841 842 844 847 847 848 850 851 853 853 853 855 857
789 774 790 781 792 785 780 782 780 779 779 779 777 773 782 787 795 800 805 806 812 817 820 823 826 830 834 837 839 841 843 843 845 846 848 850 852 851 852 854 854 855 856 857
776 775 781 782 781 784 784 782 783 783 783 780 778 776 777 788 798 803 807 808 813 817 821 826 829 833 836 838 841 843 845 845 848 848 850 851 853 852 855 855 855 855 857 858
772 780 780 779 781 784 784 786 787 787 786 786 785 784 783 788 800 804 807 811 814 817 821 825 828 833 838 840 843 845 847 848 849 850 851 852 852 853 854 855 856 860 860 860
771 778 783 779 773 780 786 790 791 790 790 790 789 789 791 797 803 807 810 813 817 823 825 829 832 836 840 844 846 848 848 849 850 851 850 850 851 853 855 858 861 861 862 863